FFT1545 KLAS-KIAH

Flight info

Callsign FFT1545
Flight time 2h 18m
Altitude 33000
Route NIITZ4 SSKEE GUP CNX SJT DIESL TTORO3
Aircraft A21N/M-SDE2E3FGHIRWXY/LB1

Departure

Time 2026-05-03 21:28
Airport Harry Reid International Airport (KLAS)

Arrival

Time 2026-05-03 23:46
Airport George Bush Intercontinental Airport (KIAH)
Time Latitude Longitude Altitude Speed Heading
2026-05-03 20:32 36.08524 -115.13793 2193 ft 0 kts
2026-05-03 21:14 36.08515 -115.13793 2193 ft 0 kts
2026-05-03 21:14 36.08488 -115.13799 2195 ft 4 kts 20°
2026-05-03 21:14 36.08466 -115.13815 2197 ft 0 kts 47°
2026-05-03 21:14 36.08455 -115.13836 2195 ft 0 kts 74°
2026-05-03 21:15 36.08461 -115.13814 2193 ft 0 kts 74°
2026-05-03 21:15 36.08465 -115.13781 2196 ft 0 kts 87°
2026-05-03 21:15 36.08465 -115.13771 2193 ft 0 kts 89°
2026-05-03 21:19 36.08465 -115.13768 2193 ft 2 kts 90°
2026-05-03 21:19 36.08462 -115.13739 2196 ft 5 kts 102°
2026-05-03 21:20 36.08449 -115.13680 2194 ft 9 kts 101°
2026-05-03 21:20 36.08440 -115.13590 2193 ft 12 kts 92°
2026-05-03 21:20 36.08431 -115.13471 2196 ft 15 kts 123°
2026-05-03 21:20 36.08357 -115.13373 2196 ft 16 kts 134°
2026-05-03 21:21 36.08277 -115.13295 2195 ft 13 kts 174°
2026-05-03 21:21 36.08181 -115.13292 2195 ft 14 kts 182°
2026-05-03 21:21 36.08079 -115.13291 2195 ft 15 kts 180°
2026-05-03 21:21 36.07970 -115.13292 2194 ft 16 kts 180°
2026-05-03 21:22 36.07857 -115.13292 2196 ft 17 kts 180°
2026-05-03 21:22 36.07775 -115.13284 2198 ft 11 kts 151°
2026-05-03 21:22 36.07754 -115.13198 2194 ft 12 kts 89°
2026-05-03 21:22 36.07755 -115.13093 2194 ft 13 kts 89°
2026-05-03 21:23 36.07755 -115.12980 2194 ft 14 kts 90°
2026-05-03 21:23 36.07755 -115.12861 2194 ft 14 kts 90°
2026-05-03 21:23 36.07755 -115.12733 2193 ft 15 kts 90°
2026-05-03 21:23 36.07755 -115.12598 2193 ft 16 kts 90°
2026-05-03 21:24 36.07756 -115.12456 2193 ft 17 kts 90°
2026-05-03 21:24 36.07755 -115.12307 2194 ft 18 kts 90°
2026-05-03 21:24 36.07755 -115.12178 2194 ft 13 kts 91°
2026-05-03 21:24 36.07684 -115.12117 2199 ft 14 kts 179°
2026-05-03 21:25 36.07643 -115.12156 2195 ft 9 kts 266°
2026-05-03 21:25 36.07643 -115.12206 2195 ft 0 kts 267°
2026-05-03 21:27 36.07643 -115.12212 2195 ft 9 kts 267°
2026-05-03 21:27 36.07643 -115.12569 2194 ft 76 kts 270°
2026-05-03 21:27 36.07640 -115.13493 2197 ft 136 kts 270°
2026-05-03 21:27 36.07643 -115.14808 2194 ft 169 kts 269°
2026-05-03 21:28 36.07643 -115.16380 2385 ft 184 kts 268°
2026-05-03 21:28 36.07661 -115.17954 2810 ft 187 kts 260°
2026-05-03 21:28 36.07588 -115.19587 3183 ft 197 kts 264°
2026-05-03 21:28 36.07561 -115.21327 3495 ft 207 kts 258°
2026-05-03 21:29 36.07291 -115.23097 3838 ft 214 kts 249°
2026-05-03 21:29 36.06873 -115.24902 4237 ft 222 kts 240°
2026-05-03 21:29 36.05891 -115.26365 4282 ft 230 kts 207°
2026-05-03 21:29 36.04434 -115.27161 4782 ft 229 kts 195°
2026-05-03 21:30 36.02940 -115.27766 5434 ft 229 kts 196°
2026-05-03 21:30 36.01429 -115.28413 6152 ft 231 kts 196°
2026-05-03 21:30 35.99847 -115.28707 6707 ft 233 kts 175°
2026-05-03 21:30 35.98261 -115.28223 7281 ft 237 kts 156°
2026-05-03 21:31 35.96923 -115.27021 7920 ft 242 kts 139°
2026-05-03 21:31 35.95683 -115.25588 8537 ft 245 kts 141°
2026-05-03 21:31 35.94409 -115.24168 9181 ft 248 kts 142°
2026-05-03 21:31 35.93121 -115.22747 9839 ft 249 kts 142°
2026-05-03 21:32 35.91827 -115.21291 10415 ft 253 kts 139°
2026-05-03 21:32 35.90730 -115.19553 10966 ft 261 kts 127°
2026-05-03 21:32 35.89801 -115.17638 11550 ft 265 kts 126°
2026-05-03 21:32 35.88870 -115.15671 12155 ft 267 kts 126°
2026-05-03 21:33 35.87924 -115.13693 12747 ft 269 kts 126°
2026-05-03 21:33 35.87038 -115.11631 13308 ft 277 kts 117°
2026-05-03 21:33 35.86603 -115.09281 13850 ft 289 kts 97°
2026-05-03 21:33 35.86676 -115.06774 14256 ft 299 kts 90°
2026-05-03 21:34 35.86857 -115.04157 14497 ft 314 kts 90°
2026-05-03 21:34 35.87042 -115.01409 14697 ft 329 kts 90°
2026-05-03 21:34 35.87218 -114.98532 14869 ft 344 kts 90°
2026-05-03 21:34 35.87391 -114.95527 15092 ft 359 kts 90°
2026-05-03 21:35 35.87565 -114.92417 15487 ft 367 kts 90°
2026-05-03 21:35 35.87740 -114.89262 16020 ft 371 kts 90°
2026-05-03 21:35 35.87917 -114.86072 16526 ft 375 kts 91°
2026-05-03 21:35 35.88090 -114.82852 17054 ft 378 kts 90°
2026-05-03 21:36 35.88264 -114.79602 17579 ft 382 kts 90°
2026-05-03 21:36 35.88439 -114.76313 18056 ft 387 kts 90°
2026-05-03 21:36 35.88615 -114.72993 18512 ft 391 kts 90°
2026-05-03 21:36 35.88794 -114.69634 18938 ft 394 kts 90°
2026-05-03 21:37 35.88972 -114.66240 19340 ft 398 kts 90°
2026-05-03 21:37 35.89151 -114.62818 19736 ft 403 kts 90°
2026-05-03 21:37 35.89330 -114.59350 20136 ft 407 kts 90°
2026-05-03 21:37 35.89512 -114.55849 20526 ft 411 kts 90°
2026-05-03 21:38 35.89662 -114.52313 20898 ft 414 kts 93°
2026-05-03 21:38 35.89670 -114.48751 21270 ft 417 kts 95°
2026-05-03 21:38 35.89647 -114.45162 21646 ft 421 kts 95°
2026-05-03 21:38 35.89622 -114.41522 22005 ft 426 kts 95°
2026-05-03 21:39 35.89598 -114.37854 22372 ft 429 kts 95°
2026-05-03 21:39 35.89575 -114.34214 22777 ft 432 kts 95°
2026-05-03 21:39 35.89554 -114.30497 23137 ft 436 kts 95°
2026-05-03 21:39 35.89533 -114.26736 23460 ft 439 kts 95°
2026-05-03 21:40 35.89508 -114.22958 23742 ft 443 kts 95°
2026-05-03 21:40 35.89479 -114.19136 24006 ft 448 kts 95°
2026-05-03 21:40 35.89454 -114.15274 24272 ft 452 kts 95°
2026-05-03 21:40 35.89432 -114.11386 24548 ft 456 kts 95°
2026-05-03 21:41 35.89406 -114.07443 24811 ft 461 kts 95°
2026-05-03 21:41 35.89376 -114.03474 25111 ft 463 kts 95°
2026-05-03 21:41 35.89344 -113.99487 25435 ft 466 kts 95°
2026-05-03 21:41 35.89310 -113.95468 25696 ft 471 kts 95°
2026-05-03 21:42 35.89272 -113.91416 25936 ft 475 kts 95°
2026-05-03 21:42 35.89235 -113.87320 26195 ft 479 kts 95°
2026-05-03 21:42 35.89195 -113.83201 26443 ft 482 kts 95°
2026-05-03 21:42 35.89153 -113.79047 26695 ft 485 kts 95°
2026-05-03 21:43 35.89105 -113.74868 26951 ft 490 kts 95°
2026-05-03 21:43 35.89059 -113.70660 27251 ft 492 kts 95°
2026-05-03 21:43 35.89012 -113.66424 27515 ft 496 kts 95°
2026-05-03 21:43 35.88958 -113.62203 27815 ft 500 kts 95°
2026-05-03 21:44 35.88908 -113.57899 28066 ft 504 kts 95°
2026-05-03 21:44 35.88814 -113.53565 28276 ft 505 kts 99°
2026-05-03 21:44 35.88323 -113.49288 28485 ft 504 kts 105°
2026-05-03 21:44 35.87698 -113.45017 28679 ft 508 kts 105°
2026-05-03 21:45 35.87052 -113.40720 28955 ft 511 kts 105°
2026-05-03 21:45 35.86414 -113.36399 29240 ft 513 kts 105°
2026-05-03 21:45 35.85785 -113.32064 29571 ft 515 kts 104°
2026-05-03 21:45 35.85160 -113.27705 29798 ft 518 kts 105°
2026-05-03 21:46 35.83887 -113.18847 30003 ft 529 kts 105°
2026-05-03 21:46 35.83242 -113.14374 30210 ft 531 kts 105°
2026-05-03 21:46 35.82586 -113.09885 30423 ft 533 kts 105°
2026-05-03 21:47 35.81930 -113.05385 30729 ft 533 kts 105°
2026-05-03 21:47 35.81271 -113.00896 30949 ft 533 kts 105°
2026-05-03 21:47 35.80610 -112.96405 31186 ft 534 kts 105°
2026-05-03 21:47 35.79946 -112.91903 31402 ft 534 kts 105°
2026-05-03 21:48 35.79279 -112.87393 31635 ft 535 kts 105°
2026-05-03 21:48 35.78612 -112.82887 31855 ft 535 kts 105°
2026-05-03 21:48 35.77952 -112.78444 32068 ft 535 kts 105°
2026-05-03 21:48 35.77278 -112.73941 32306 ft 534 kts 105°
2026-05-03 21:49 35.76600 -112.69442 32523 ft 534 kts 105°
2026-05-03 21:49 35.75927 -112.64938 32712 ft 535 kts 105°
2026-05-03 21:49 35.75254 -112.60436 32855 ft 534 kts 104°
2026-05-03 21:49 35.74584 -112.55948 32899 ft 532 kts 104°
2026-05-03 21:50 35.73233 -112.47004 32908 ft 531 kts 104°
2026-05-03 21:50 35.71875 -112.38017 32977 ft 539 kts 104°
2026-05-03 21:51 35.70485 -112.28890 33046 ft 545 kts 104°
2026-05-03 21:51 35.69081 -112.19725 33069 ft 545 kts 104°
2026-05-03 21:52 35.67670 -112.10559 33078 ft 545 kts 104°
2026-05-03 21:52 35.66267 -112.01455 33072 ft 545 kts 104°
2026-05-03 21:53 35.64839 -111.92285 33014 ft 545 kts 104°
2026-05-03 21:53 35.63442 -111.83129 32966 ft 546 kts 101°
2026-05-03 21:54 35.62904 -111.73803 32894 ft 547 kts 94°
2026-05-03 21:54 35.62530 -111.64449 32898 ft 548 kts 95°
2026-05-03 21:55 35.62127 -111.55101 32896 ft 548 kts 95°
2026-05-03 21:55 35.61716 -111.45755 32871 ft 547 kts 95°
2026-05-03 21:56 35.61310 -111.36414 32855 ft 548 kts 95°
2026-05-03 21:56 35.60886 -111.27123 32835 ft 547 kts 95°
2026-05-03 21:57 35.60450 -111.17786 32836 ft 548 kts 95°
2026-05-03 21:57 35.60011 -111.08453 32823 ft 545 kts 95°
2026-05-03 21:58 35.59582 -110.99136 32838 ft 546 kts 95°
2026-05-03 21:58 35.59157 -110.89826 32829 ft 546 kts 95°
2026-05-03 21:59 35.58695 -110.80495 32842 ft 547 kts 95°
2026-05-03 21:59 35.58238 -110.71231 32852 ft 546 kts 95°
2026-05-03 22:00 35.57764 -110.61927 32856 ft 546 kts 94°
2026-05-03 22:00 35.57287 -110.52631 32873 ft 546 kts 95°
2026-05-03 22:01 35.56801 -110.43327 32895 ft 546 kts 95°
2026-05-03 22:01 35.56313 -110.34029 32883 ft 545 kts 95°
2026-05-03 22:02 35.55813 -110.24723 32891 ft 545 kts 95°
2026-05-03 22:02 35.55394 -110.16998 32898 ft 545 kts 95°
2026-05-03 22:03 35.54879 -110.07701 32905 ft 547 kts 96°
2026-05-03 22:03 35.54360 -109.98390 32905 ft 547 kts 96°
2026-05-03 22:04 35.53832 -109.89092 32883 ft 544 kts 95°
2026-05-03 22:04 35.53298 -109.79836 32915 ft 544 kts 95°
2026-05-03 22:05 35.52761 -109.70563 32903 ft 546 kts 95°
2026-05-03 22:05 35.52212 -109.61275 32902 ft 545 kts 95°
2026-05-03 22:06 35.51663 -109.52051 32903 ft 545 kts 96°
2026-05-03 22:06 35.51089 -109.42773 32935 ft 547 kts 96°
2026-05-03 22:07 35.50496 -109.33443 32984 ft 548 kts 96°
2026-05-03 22:07 35.49920 -109.24098 33029 ft 548 kts 95°
2026-05-03 22:08 35.49343 -109.14767 33058 ft 548 kts 96°
2026-05-03 22:08 35.48746 -109.05435 33074 ft 548 kts 96°
2026-05-03 22:09 35.48139 -108.96102 33083 ft 549 kts 96°
2026-05-03 22:10 35.46052 -108.82426 33120 ft 542 kts 115°
2026-05-03 22:10 35.43204 -108.73952 32921 ft 542 kts 117°
2026-05-03 22:11 35.40329 -108.65402 32902 ft 542 kts 116°
2026-05-03 22:11 35.37487 -108.56835 32904 ft 542 kts 116°
2026-05-03 22:12 35.34637 -108.48278 32904 ft 542 kts 116°
2026-05-03 22:12 35.31776 -108.39728 32883 ft 541 kts 116°
2026-05-03 22:13 35.28929 -108.31228 32904 ft 539 kts 116°
2026-05-03 22:13 35.26075 -108.22734 32975 ft 539 kts 116°
2026-05-03 22:14 35.23211 -108.14251 33042 ft 540 kts 116°
2026-05-03 22:14 35.20347 -108.05769 33109 ft 540 kts 116°
2026-05-03 22:15 35.17492 -107.97339 33150 ft 540 kts 116°
2026-05-03 22:15 35.14608 -107.88861 32911 ft 540 kts 116°
2026-05-03 22:16 35.11725 -107.80401 32916 ft 539 kts 117°
2026-05-03 22:16 35.08833 -107.71953 32923 ft 539 kts 116°
2026-05-03 22:17 35.05932 -107.63481 32917 ft 540 kts 116°
2026-05-03 22:17 35.03069 -107.55078 32922 ft 540 kts 116°
2026-05-03 22:18 35.00162 -107.46620 32927 ft 540 kts 116°
2026-05-03 22:18 34.97239 -107.38180 32891 ft 540 kts 116°
2026-05-03 22:19 34.94326 -107.29765 32933 ft 538 kts 116°
2026-05-03 22:19 34.91406 -107.21364 32939 ft 538 kts 116°
2026-05-03 22:20 34.88481 -107.12958 32943 ft 538 kts 116°
2026-05-03 22:20 34.85558 -107.04570 32949 ft 538 kts 116°
2026-05-03 22:21 34.82647 -106.96266 32958 ft 536 kts 116°
2026-05-03 22:21 34.79704 -106.87921 32964 ft 536 kts 116°
2026-05-03 22:21 34.78232 -106.83750 33067 ft 537 kts 116°
2026-05-03 22:22 34.76761 -106.79574 33073 ft 536 kts 116°
2026-05-03 22:22 34.73819 -106.71240 33077 ft 536 kts 116°
2026-05-03 22:23 34.70861 -106.62883 33077 ft 538 kts 116°
2026-05-03 22:23 34.67901 -106.54537 33046 ft 538 kts 116°
2026-05-03 22:24 34.64938 -106.46252 33029 ft 538 kts 116°
2026-05-03 22:24 34.61960 -106.37905 32982 ft 539 kts 116°
2026-05-03 22:25 34.58992 -106.29546 33022 ft 539 kts 116°
2026-05-03 22:25 34.56013 -106.21194 33029 ft 539 kts 117°
2026-05-03 22:26 34.53014 -106.12856 33030 ft 539 kts 117°
2026-05-03 22:26 34.50016 -106.04524 33035 ft 539 kts 117°
2026-05-03 22:27 34.47024 -105.96252 33041 ft 539 kts 117°
2026-05-03 22:27 34.44007 -105.87922 33014 ft 540 kts 117°
2026-05-03 22:28 34.40980 -105.79588 33043 ft 541 kts 117°
2026-05-03 22:28 34.37938 -105.71265 33031 ft 541 kts 117°
2026-05-03 22:29 34.34319 -105.63358 33036 ft 534 kts 127°
2026-05-03 22:29 34.30256 -105.55814 33023 ft 535 kts 128°
2026-05-03 22:30 34.26222 -105.48309 33014 ft 536 kts 127°
2026-05-03 22:30 34.22166 -105.40730 33008 ft 538 kts 128°
2026-05-03 22:31 34.18086 -105.33142 32994 ft 538 kts 128°
2026-05-03 22:31 34.14014 -105.25578 32993 ft 538 kts 127°
2026-05-03 22:32 34.09940 -105.17995 32982 ft 538 kts 127°
2026-05-03 22:32 34.05849 -105.10438 32982 ft 538 kts 128°
2026-05-03 22:33 34.01751 -105.02881 32964 ft 538 kts 128°
2026-05-03 22:33 33.97671 -104.95375 32976 ft 539 kts 128°
2026-05-03 22:34 33.93573 -104.87848 32970 ft 535 kts 128°
2026-05-03 22:34 33.89489 -104.80355 32969 ft 535 kts 128°
2026-05-03 22:35 33.85398 -104.72875 32970 ft 535 kts 128°
2026-05-03 22:35 33.81294 -104.65403 32967 ft 537 kts 128°
2026-05-03 22:36 33.77183 -104.57898 32970 ft 537 kts 128°
2026-05-03 22:36 33.73068 -104.50411 32971 ft 537 kts 128°
2026-05-03 22:37 33.68947 -104.42935 32961 ft 537 kts 128°
2026-05-03 22:37 33.64811 -104.35463 32957 ft 537 kts 128°
2026-05-03 22:38 33.60679 -104.27992 32947 ft 538 kts 129°
2026-05-03 22:38 33.56537 -104.20526 32981 ft 537 kts 129°
2026-05-03 22:39 33.52380 -104.13046 32971 ft 540 kts 128°
2026-05-03 22:39 33.48240 -104.05607 32976 ft 540 kts 129°
2026-05-03 22:40 33.44066 -103.98132 32977 ft 540 kts 129°
2026-05-03 22:40 33.39886 -103.90671 32983 ft 538 kts 128°
2026-05-03 22:41 33.35717 -103.83239 32987 ft 538 kts 128°
2026-05-03 22:41 33.31542 -103.75801 32988 ft 538 kts 128°
2026-05-03 22:42 33.27372 -103.68380 32989 ft 538 kts 128°
2026-05-03 22:42 33.23196 -103.60971 32992 ft 537 kts 129°
2026-05-03 22:43 33.19045 -103.53604 32975 ft 538 kts 128°
2026-05-03 22:43 33.14858 -103.46213 32995 ft 538 kts 128°
2026-05-03 22:44 33.10653 -103.38824 32996 ft 538 kts 128°
2026-05-03 22:44 33.06448 -103.31435 32999 ft 538 kts 128°
2026-05-03 22:45 33.02246 -103.24046 33011 ft 538 kts 128°
2026-05-03 22:45 32.98041 -103.16668 33015 ft 538 kts 128°
2026-05-03 22:46 32.93818 -103.09295 33007 ft 540 kts 128°
2026-05-03 22:46 32.89592 -103.01906 33001 ft 540 kts 128°
2026-05-03 22:47 32.85356 -102.94518 33022 ft 540 kts 128°
2026-05-03 22:47 32.81144 -102.87200 33060 ft 540 kts 128°
2026-05-03 22:48 32.76895 -102.79834 33099 ft 540 kts 129°
2026-05-03 22:48 32.72641 -102.72465 33138 ft 539 kts 128°
2026-05-03 22:49 32.68395 -102.65124 33133 ft 539 kts 128°
2026-05-03 22:49 32.64148 -102.57793 33131 ft 539 kts 128°
2026-05-03 22:50 32.59924 -102.50519 33104 ft 538 kts 128°
2026-05-03 22:50 32.55669 -102.43200 33071 ft 539 kts 128°
2026-05-03 22:51 32.51402 -102.35885 33025 ft 540 kts 128°
2026-05-03 22:51 32.47124 -102.28563 33001 ft 541 kts 128°
2026-05-03 22:52 32.42842 -102.21245 33007 ft 541 kts 128°
2026-05-03 22:52 32.38555 -102.13926 33003 ft 540 kts 129°
2026-05-03 22:53 32.34267 -102.06626 33019 ft 540 kts 129°
2026-05-03 22:53 32.29976 -101.99342 33013 ft 541 kts 128°
2026-05-03 22:54 32.25668 -101.92035 33032 ft 542 kts 128°
2026-05-03 22:54 32.21378 -101.84775 33031 ft 542 kts 129°
2026-05-03 22:55 32.17052 -101.77483 33048 ft 542 kts 129°
2026-05-03 22:55 32.12723 -101.70199 33059 ft 542 kts 129°
2026-05-03 22:56 32.08400 -101.62923 33068 ft 540 kts 128°
2026-05-03 22:56 32.04073 -101.55652 33058 ft 543 kts 129°
2026-05-03 22:57 31.99752 -101.48412 33052 ft 543 kts 129°
2026-05-03 22:57 31.95394 -101.41139 33045 ft 543 kts 129°
2026-05-03 22:58 31.91044 -101.33868 33034 ft 543 kts 129°
2026-05-03 22:58 31.86680 -101.26599 33040 ft 544 kts 128°
2026-05-03 22:59 31.82306 -101.19324 33027 ft 545 kts 129°
2026-05-03 22:59 31.78656 -101.13270 33045 ft 546 kts 129°
2026-05-03 23:00 31.74267 -101.05992 33043 ft 546 kts 129°
2026-05-03 23:00 31.69873 -100.98722 33053 ft 546 kts 129°
2026-05-03 23:01 31.65477 -100.91451 33057 ft 545 kts 129°
2026-05-03 23:01 31.61074 -100.84200 33032 ft 545 kts 129°
2026-05-03 23:02 31.56678 -100.76975 33057 ft 544 kts 129°
2026-05-03 23:02 31.52310 -100.69802 33074 ft 544 kts 129°
2026-05-03 23:03 31.47911 -100.62592 33085 ft 544 kts 129°
2026-05-03 23:03 31.43508 -100.55386 33098 ft 545 kts 129°
2026-05-03 23:04 31.39099 -100.48140 33090 ft 548 kts 126°
2026-05-03 23:04 31.37257 -100.44224 33086 ft 551 kts 114°
2026-05-03 23:04 31.36002 -100.39986 33074 ft 551 kts 106°
2026-05-03 23:05 31.33924 -100.31368 33086 ft 550 kts 105°
2026-05-03 23:05 31.31818 -100.22767 33065 ft 550 kts 106°
2026-05-03 23:06 31.29659 -100.14168 33072 ft 552 kts 105°
2026-05-03 23:06 31.27506 -100.05606 33062 ft 552 kts 105°
2026-05-03 23:07 31.25351 -99.96985 33056 ft 552 kts 105°
2026-05-03 23:07 31.23211 -99.88369 33055 ft 553 kts 105°
2026-05-03 23:08 31.21035 -99.79760 33068 ft 551 kts 105°
2026-05-03 23:08 31.18871 -99.71203 33057 ft 549 kts 105°
2026-05-03 23:09 31.16695 -99.62656 33061 ft 549 kts 105°
2026-05-03 23:09 31.14510 -99.54097 33051 ft 550 kts 105°
2026-05-03 23:10 31.12327 -99.45579 33082 ft 551 kts 105°
2026-05-03 23:10 31.10128 -99.37025 33119 ft 550 kts 105°
2026-05-03 23:11 31.07930 -99.28458 33112 ft 551 kts 105°
2026-05-03 23:11 31.05724 -99.19913 33110 ft 550 kts 105°
2026-05-03 23:12 31.03499 -99.11343 33103 ft 550 kts 105°
2026-05-03 23:12 31.01297 -99.02861 33110 ft 549 kts 105°
2026-05-03 23:13 30.99078 -98.94344 33099 ft 549 kts 105°
2026-05-03 23:13 30.96862 -98.85822 33101 ft 549 kts 104°
2026-05-03 23:14 30.95433 -98.77122 33112 ft 547 kts 96°
2026-05-03 23:14 30.94236 -98.68373 33099 ft 547 kts 96°
2026-05-03 23:15 30.93022 -98.59625 33114 ft 547 kts 96°
2026-05-03 23:15 30.91797 -98.50890 33119 ft 546 kts 96°
2026-05-03 23:16 30.90574 -98.42202 33130 ft 546 kts 96°
2026-05-03 23:16 30.89331 -98.33481 33154 ft 546 kts 96°
2026-05-03 23:17 30.88098 -98.24771 33139 ft 544 kts 96°
2026-05-03 23:17 30.86856 -98.16098 33136 ft 542 kts 96°
2026-05-03 23:18 30.85612 -98.07452 33134 ft 541 kts 96°
2026-05-03 23:18 30.84365 -97.98802 33134 ft 543 kts 96°
2026-05-03 23:19 30.83106 -97.90128 33132 ft 544 kts 96°
2026-05-03 23:19 30.81830 -97.81455 33132 ft 544 kts 96°
2026-05-03 23:20 30.80555 -97.72817 33134 ft 544 kts 96°
2026-05-03 23:20 30.79267 -97.64147 33128 ft 544 kts 96°
2026-05-03 23:21 30.77982 -97.55477 33143 ft 544 kts 97°
2026-05-03 23:21 30.76693 -97.46863 33127 ft 544 kts 97°
2026-05-03 23:22 30.74740 -97.33923 32358 ft 542 kts 97°
2026-05-03 23:22 30.74090 -97.29612 31768 ft 540 kts 97°
2026-05-03 23:22 30.73437 -97.25313 31071 ft 541 kts 97°
2026-05-03 23:23 30.72784 -97.21014 30408 ft 540 kts 97°
2026-05-03 23:23 30.72128 -97.16717 29668 ft 540 kts 98°
2026-05-03 23:23 30.71477 -97.12433 28944 ft 538 kts 98°
2026-05-03 23:23 30.70828 -97.08167 28274 ft 534 kts 98°
2026-05-03 23:24 30.70182 -97.03932 27651 ft 530 kts 98°
2026-05-03 23:24 30.69532 -96.99738 27004 ft 526 kts 98°
2026-05-03 23:24 30.68884 -96.95576 26358 ft 521 kts 99°
2026-05-03 23:24 30.68242 -96.91464 25722 ft 515 kts 99°
2026-05-03 23:25 30.67616 -96.87386 25120 ft 509 kts 99°
2026-05-03 23:25 30.66999 -96.83373 24579 ft 501 kts 99°
2026-05-03 23:25 30.66377 -96.79419 24020 ft 494 kts 99°
2026-05-03 23:25 30.65760 -96.75525 23437 ft 487 kts 99°
2026-05-03 23:26 30.65154 -96.71675 22727 ft 480 kts 99°
2026-05-03 23:26 30.64554 -96.67887 22048 ft 472 kts 99°
2026-05-03 23:26 30.63968 -96.64159 21360 ft 465 kts 99°
2026-05-03 23:26 30.63395 -96.60493 20693 ft 458 kts 99°
2026-05-03 23:27 30.62831 -96.56927 20083 ft 451 kts 99°
2026-05-03 23:27 30.62264 -96.53374 19506 ft 443 kts 99°
2026-05-03 23:27 30.61707 -96.49889 18967 ft 435 kts 99°
2026-05-03 23:27 30.61163 -96.46467 18472 ft 427 kts 99°
2026-05-03 23:28 30.60538 -96.43125 17855 ft 421 kts 107°
2026-05-03 23:28 30.59296 -96.40089 17278 ft 414 kts 123°
2026-05-03 23:28 30.57629 -96.37401 16756 ft 406 kts 127°
2026-05-03 23:28 30.55942 -96.34808 16260 ft 398 kts 127°
2026-05-03 23:29 30.54306 -96.32274 15879 ft 386 kts 127°
2026-05-03 23:29 30.52737 -96.29816 15587 ft 373 kts 127°
2026-05-03 23:29 30.51228 -96.27438 15246 ft 361 kts 127°
2026-05-03 23:29 30.49751 -96.25106 14761 ft 356 kts 127°
2026-05-03 23:30 30.48295 -96.22810 14254 ft 351 kts 127°
2026-05-03 23:30 30.46862 -96.20548 13705 ft 346 kts 127°
2026-05-03 23:30 30.45451 -96.18322 13246 ft 338 kts 127°
2026-05-03 23:30 30.44101 -96.16193 12942 ft 326 kts 127°
2026-05-03 23:31 30.42778 -96.14109 12580 ft 317 kts 127°
2026-05-03 23:31 30.41480 -96.12066 12076 ft 313 kts 127°
2026-05-03 23:31 30.40193 -96.10043 11556 ft 311 kts 127°
2026-05-03 23:31 30.38914 -96.08034 11045 ft 308 kts 127°
2026-05-03 23:32 30.37651 -96.06049 10677 ft 305 kts 127°
2026-05-03 23:32 30.36319 -96.04154 10333 ft 303 kts 138°
2026-05-03 23:32 30.34552 -96.02876 10019 ft 299 kts 160°
2026-05-03 23:32 30.32579 -96.02127 9692 ft 298 kts 165°
2026-05-03 23:33 30.30611 -96.01454 9369 ft 291 kts 165°
2026-05-03 23:33 30.28697 -96.00786 9060 ft 284 kts 164°
2026-05-03 23:33 30.26826 -96.00120 8694 ft 279 kts 164°
2026-05-03 23:33 30.24994 -95.99459 8415 ft 271 kts 163°
2026-05-03 23:34 30.23219 -95.98813 8091 ft 264 kts 164°
2026-05-03 23:34 30.21478 -95.98177 7816 ft 261 kts 164°
2026-05-03 23:34 30.19753 -95.97546 7769 ft 259 kts 163°
2026-05-03 23:34 30.18056 -95.96924 7770 ft 259 kts 164°
2026-05-03 23:35 30.16331 -95.96291 7767 ft 260 kts 163°
2026-05-03 23:35 30.14608 -95.95658 7801 ft 259 kts 164°
2026-05-03 23:35 30.12891 -95.95027 7774 ft 256 kts 163°
2026-05-03 23:35 30.11203 -95.94403 7387 ft 253 kts 163°
2026-05-03 23:36 30.09531 -95.93786 7071 ft 252 kts 163°
2026-05-03 23:36 30.07869 -95.93172 6950 ft 250 kts 163°
2026-05-03 23:36 30.06210 -95.92560 6994 ft 251 kts 163°
2026-05-03 23:36 30.04554 -95.91948 7022 ft 249 kts 163°
2026-05-03 23:37 30.02921 -95.91279 7017 ft 249 kts 155°
2026-05-03 23:37 30.01560 -95.90061 7042 ft 251 kts 131°
2026-05-03 23:37 30.00522 -95.88443 7045 ft 252 kts 127°
2026-05-03 23:37 29.99548 -95.86759 7033 ft 252 kts 121°
2026-05-03 23:38 29.99052 -95.84822 6961 ft 256 kts 95°
2026-05-03 23:38 29.99065 -95.82768 6943 ft 256 kts 89°
2026-05-03 23:38 29.99131 -95.80713 6940 ft 256 kts 90°
2026-05-03 23:38 29.99179 -95.78659 6941 ft 256 kts 90°
2026-05-03 23:39 29.99216 -95.76609 6964 ft 256 kts 91°
2026-05-03 23:39 29.99241 -95.74549 6743 ft 256 kts 91°
2026-05-03 23:39 29.99258 -95.72517 6458 ft 249 kts 91°
2026-05-03 23:39 29.99272 -95.70573 6207 ft 236 kts 91°
2026-05-03 23:40 29.99283 -95.68711 5839 ft 230 kts 91°
2026-05-03 23:40 29.99289 -95.66876 5402 ft 227 kts 91°
2026-05-03 23:40 29.99297 -95.65061 4948 ft 225 kts 92°
2026-05-03 23:40 29.99300 -95.63275 4608 ft 218 kts 92°
2026-05-03 23:41 29.99308 -95.61588 4360 ft 206 kts 91°
2026-05-03 23:41 29.99341 -95.60003 4177 ft 192 kts 91°
2026-05-03 23:41 29.99348 -95.58475 3949 ft 189 kts 92°
2026-05-03 23:41 29.99350 -95.56959 3704 ft 189 kts 92°
2026-05-03 23:42 29.99350 -95.55477 3459 ft 179 kts 92°
2026-05-03 23:42 29.99349 -95.54093 3233 ft 167 kts 92°
2026-05-03 23:42 29.99350 -95.52764 3031 ft 166 kts 92°
2026-05-03 23:42 29.99349 -95.51436 2811 ft 164 kts 93°
2026-05-03 23:43 29.99349 -95.50185 2611 ft 148 kts 93°
2026-05-03 23:43 29.99349 -95.49030 2392 ft 143 kts 93°
2026-05-03 23:43 29.99349 -95.47879 2199 ft 144 kts 94°
2026-05-03 23:43 29.99349 -95.46725 2006 ft 143 kts 92°
2026-05-03 23:44 29.99349 -95.45561 1829 ft 148 kts 93°
2026-05-03 23:44 29.99349 -95.44371 1642 ft 148 kts 93°
2026-05-03 23:44 29.99348 -95.43174 1446 ft 150 kts 94°
2026-05-03 23:44 29.99349 -95.41977 1244 ft 148 kts 93°
2026-05-03 23:45 29.99348 -95.40786 1044 ft 149 kts 92°
2026-05-03 23:45 29.99346 -95.39588 834 ft 147 kts 92°
2026-05-03 23:45 29.99355 -95.38428 611 ft 146 kts 93°
2026-05-03 23:45 29.99348 -95.37275 414 ft 145 kts 94°
2026-05-03 23:46 29.99332 -95.36111 271 ft 145 kts 93°
2026-05-03 23:46 29.99348 -95.34956 127 ft 141 kts 96°
2026-05-03 23:46 29.99328 -95.33956 110 ft 93 kts 82°
2026-05-03 23:46 29.99342 -95.33533 114 ft 27 kts 88°
2026-05-03 23:47 29.99336 -95.33416 113 ft 13 kts 99°
2026-05-03 23:47 29.99304 -95.33282 111 ft 18 kts 114°
2026-05-03 23:47 29.99245 -95.33165 113 ft 14 kts 124°
2026-05-03 23:47 29.99179 -95.33193 112 ft 15 kts 267°
2026-05-03 23:48 29.99178 -95.33323 113 ft 17 kts 270°
2026-05-03 23:48 29.99179 -95.33455 112 ft 15 kts 271°
2026-05-03 23:48 29.99179 -95.33563 112 ft 11 kts 269°
2026-05-03 23:48 29.99173 -95.33650 111 ft 10 kts 247°
2026-05-03 23:49 29.99111 -95.33686 112 ft 11 kts 200°
2026-05-03 23:49 29.99042 -95.33719 112 ft 9 kts 184°
2026-05-03 23:49 29.98992 -95.33721 112 ft 6 kts 179°
2026-05-03 23:49 29.98944 -95.33717 112 ft 8 kts 173°
2026-05-03 23:50 29.98888 -95.33721 112 ft 7 kts 199°
2026-05-03 23:50 29.98882 -95.33724 112 ft 0 kts 199°
2026-05-03 23:50 29.98879 -95.33725 112 ft 2 kts 199°
2026-05-03 23:50 29.98854 -95.33738 111 ft 6 kts 206°
2026-05-03 23:51 29.98816 -95.33753 112 ft 4 kts 182°
2026-05-03 23:51 29.98802 -95.33751 112 ft 2 kts 167°
2026-05-03 23:51 29.98801 -95.33751 112 ft 0 kts 166°